User: anonymous   Login
Location: Newark
(44.6768°N, 22.5302°E)
Time: 10:50:59
(UTC+00:00)
Language:

QB50P2 - Orbit

View from above orbital plane
View from above orbital plane
View from above satellite
View from above satellite

Ground track
Ground track

The orbit data is extracted from the following two-line orbital elements,

1 40032U 14033Y   22175.80428830  .00001558  00000-0  16753-3 0  9994
2 40032  97.9383 108.6142 0012680  36.9426 323.2662 14.89953762434716
Epoch (UTC): 24 June 2022 19:18:10
Eccentricity: 0.0012680
inclination: 97.9383°
perigee height: 589 km
apogee height: 607 km
right ascension of ascending node: 108.6142°
argument of perigee: 36.9426°
revolutions per day: 14.89953762
mean anomaly at epoch: 323.2662°
orbit number at epoch: 43471

The dashed part of the orbit path shows where the satellite is in the earth's shadow,  

DLR